FW7644 Weather Reports


time (UTC)temp
C
wind
direction
speed
KPH
gust
KPH
rain 1hr
cm
rain 24hr
cm
rain mn
cm
humidity
%
barometer
mb
20260507203317 22 0.0 0.0 0.00 0.00 0.00 65 1013.1
20260507202815 23 0.0 0.0 0.00 0.00 0.00 64 1013.0
20260507202313 23 0.0 0.0 0.00 0.00 0.00 63 1013.0
20260507201812 23 0.0 0.0 0.00 0.00 0.00 61 1013.0
20260507201310 23 0.0 0.0 0.00 0.00 0.00 60 1013.0
20260507200808 24 0.0 0.0 0.00 0.00 0.00 57 1013.0
20260507200307 24 0.0 0.0 0.00 0.00 0.00 57 1013.0
20260507195805 24 0.0 0.0 0.00 0.00 0.00 57 1013.0
20260507195305 25 0.0 0.0 0.00 0.00 0.00 55 1013.0
20260507194801 25 0.0 0.0 0.00 0.00 0.00 54 1012.9
20260507194300 25 0.0 0.0 0.00 0.00 0.00 56 1013.0
20260507193758 25 0.0 0.0 0.00 0.00 0.00 56 1013.0
20260507193256 25 0.0 0.0 0.00 0.00 0.00 54 1013.0
20260507192754 25 0.0 0.0 0.00 0.00 0.00 53 1013.1
20260507192253 25 0.0 0.0 0.00 0.00 0.00 53 1013.0
20260507191750 25 0.0 0.0 0.00 0.00 0.00 53 1013.0
20260507191248 25 0.0 0.0 0.00 0.00 0.00 52 1013.1
20260507190746 25 0.0 0.0 0.00 0.00 0.00 51 1013.1
20260507190245 27 0.0 0.0 0.00 0.00 0.00 47 1013.2
20260507185743 27 0.0 0.0 0.00 0.00 0.00 47 1013.2
20260507185242 27 0.0 0.0 0.00 0.00 0.00 45 1013.4
20260507184740 27 0.0 0.0 0.00 0.00 0.00 46 1013.4
20260507184238 27 0.0 0.0 0.00 0.00 0.00 46 1013.4
20260507183736 26 0.0 0.0 0.00 0.00 0.00 47 1013.3
20260507183234 27 0.0 0.0 0.00 0.00 0.00 46 1013.3
20260507182732 27 0.0 0.0 0.00 0.00 0.00 46 1013.4
20260507182231 27 0.0 0.0 0.00 0.00 0.00 45 1013.3
20260507181729 27 0.0 0.0 0.00 0.00 0.00 45 1013.4
20260507181227 27 0.0 0.0 0.00 0.00 0.00 45 1013.5
20260507180726 27 0.0 0.0 0.00 0.00 0.00 45 1013.5
20260507180224 28 0.0 0.0 0.00 0.00 0.00 43 1013.5
20260507175722 28 0.0 0.0 0.00 0.00 0.00 43 1013.6
20260507175220 27 0.0 0.0 0.00 0.00 0.00 44 1013.6
20260507174718 28 0.0 0.0 0.00 0.00 0.00 42 1013.6
20260507174217 27 0.0 0.0 0.00 0.00 0.00 43 1013.7
20260507173715 27 0.0 0.0 0.00 0.00 0.00 43 1013.8
20260507173213 27 0.0 0.0 0.00 0.00 0.00 42 1013.8
20260507172711 27 0.0 0.0 0.00 0.00 0.00 43 1013.8
20260507172210 28 0.0 0.0 0.00 0.00 0.00 41 1013.8
20260507171708 28 0.0 0.0 0.00 0.00 0.00 41 1013.8
20260507171206 28 0.0 0.0 0.00 0.00 0.00 41 1013.8
20260507170704 27 0.0 0.0 0.00 0.00 0.00 43 1013.9
20260507170203 27 0.0 0.0 0.00 0.00 0.00 41 1014.0
20260507165701 28 0.0 0.0 0.00 0.00 0.00 41 1014.0
20260507165159 27 0.0 0.0 0.00 0.00 0.00 42 1014.1
20260507164657 27 0.0 0.0 0.00 0.00 0.00 41 1014.2
20260507164155 28 0.0 0.0 0.00 0.00 0.00 40 1014.3
20260507163652 28 0.0 0.0 0.00 0.00 0.00 39 1014.4
20260507163151 27 0.0 0.0 0.00 0.00 0.00 40 1014.5
20260507162649 27 0.0 0.0 0.00 0.00 0.00 42 1014.5
20260507162147 27 0.0 0.0 0.00 0.00 0.00 43 1014.6
20260507161645 28 0.0 0.0 0.00 0.00 0.00 42 1014.7
20260507161143 28 0.0 0.0 0.00 0.00 0.00 43 1014.8
20260507160641 28 0.0 0.0 0.00 0.00 0.00 42 1014.8
20260507160140 27 0.0 0.0 0.00 0.00 0.00 41 1015.0
20260507155636 28 0.0 0.0 0.00 0.00 0.00 42 1015.2
20260507155134 27 0.0 0.0 0.00 0.00 0.00 44 1015.3
20260507154632 27 0.0 0.0 0.00 0.00 0.00 45 1015.4
20260507154127 27 0.0 0.0 0.00 0.00 0.00 43 1015.5
20260507153625 27 0.0 0.0 0.00 0.00 0.00 44 1015.6
20260507153123 27 0.0 0.0 0.00 0.00 0.00 45 1015.6
20260507152622 27 0.0 0.0 0.00 0.00 0.00 46 1015.7
20260507152120 27 0.0 0.0 0.00 0.00 0.00 45 1015.9
20260507151619 27 0.0 0.0 0.00 0.00 0.00 45 1015.9
20260507151117 27 0.0 0.0 0.00 0.00 0.00 45 1016.0
20260507150615 27 0.0 0.0 0.00 0.00 0.00 44 1016.1
20260507150114 27 0.0 0.0 0.00 0.00 0.00 45 1016.2
20260507145612 27 0.0 0.0 0.00 0.00 0.00 46 1016.4
20260507145110 26 0.0 0.0 0.00 0.00 0.00 48 1016.5
20260507144608 27 0.0 0.0 0.00 0.00 0.00 47 1016.6
20260507144106 27 0.0 0.0 0.00 0.00 0.00 48 1016.7
20260507143605 27 0.0 0.0 0.00 0.00 0.00 49 1016.8
20260507143103 26 0.0 0.0 0.00 0.00 0.00 49 1016.8
20260507142601 26 0.0 0.0 0.00 0.00 0.00 50 1016.9
20260507142059 27 0.0 0.0 0.00 0.00 0.00 51 1017.0
20260507141558 26 0.0 0.0 0.00 0.00 0.00 51 1017.0
20260507141056 26 0.0 0.0 0.00 0.00 0.00 54 1017.0
20260507140555 26 0.0 0.0 0.00 0.00 0.00 57 1017.0
20260507140052 26 0.0 0.0 0.00 0.00 0.00 57 1017.2
20260507135550 26 0.0 0.0 0.00 0.00 0.00 62 1017.2
20260507135048 26 0.0 0.0 0.00 0.00 0.00 60 1017.2
20260507134547 26 0.0 0.0 0.00 0.00 0.00 60 1017.3
20260507134045 26 0.0 0.0 0.00 0.00 0.00 61 1017.3
20260507133543 25 0.0 0.0 0.00 0.00 0.00 66 1017.3
20260507133042 23 0.0 0.0 0.00 0.00 0.00 70 1017.4
20260507132540 23 0.0 0.0 0.00 0.00 0.00 72 1017.6
20260507132038 23 0.0 0.0 0.00 0.00 0.00 70 1017.6
20260507131534 24 0.0 0.0 0.00 0.00 0.00 66 1017.6
20260507131031 23 0.0 0.0 0.00 0.00 0.00 68 1017.7
20260507130528 23 0.0 0.0 0.00 0.00 0.00 67 1017.7
20260507130026 23 0.0 0.0 0.00 0.00 0.00 69 1017.7
20260507125523 23 0.0 0.0 0.00 0.00 0.00 69 1017.8
20260507125022 24 0.0 0.0 0.00 0.00 0.00 64 1017.9
20260507124520 25 0.0 0.0 0.00 0.00 0.00 62 1017.9
20260507124016 24 0.0 0.0 0.00 0.00 0.00 63 1018.0
20260507123514 25 0.0 0.0 0.00 0.00 0.00 64 1017.9
20260507123012 24 0.0 0.0 0.00 0.00 0.00 64 1017.9
20260507122509 25 0.0 0.0 0.00 0.00 0.00 65 1017.9
20260507122007 23 0.0 0.0 0.00 0.00 0.00 68 1018.0
20260507121504 23 0.0 0.0 0.00 0.00 0.00 69 1018.0
20260507121003 23 0.0 0.0 0.00 0.00 0.00 70 1018.0
20260507120500 21 0.0 0.0 0.00 0.00 0.00 80 1018.0
20260507115957 20 0.0 0.0 0.00 0.00 0.00 88 1018.0
20260507115454 20 0.0 0.0 0.00 0.00 0.00 85 1018.1
20260507114951 20 0.0 0.0 0.00 0.00 0.00 84 1018.1
20260507114448 20 0.0 0.0 0.00 0.00 0.00 85 1018.2
20260507113946 21 0.0 0.0 0.00 0.00 0.00 81 1018.2
20260507113444 21 0.0 0.0 0.00 0.00 0.00 78 1018.2
20260507112942 22 0.0 0.0 0.00 0.00 0.00 76 1018.2
20260507112440 23 0.0 0.0 0.00 0.00 0.00 69 1018.3
20260507111936 23 0.0 0.0 0.00 0.00 0.00 68 1018.4
20260507111433 23 0.0 0.0 0.00 0.00 0.00 69 1018.5
20260507110931 22 0.0 0.0 0.00 0.00 0.00 75 1018.3
20260507110429 22 0.0 0.0 0.00 0.00 0.00 76 1018.3
20260507105928 21 0.0 0.0 0.00 0.00 0.00 81 1018.4
20260507105426 20 0.0 0.0 0.00 0.00 0.00 99 1018.3
20260507104924 18 0.0 0.0 0.00 0.00 0.00 99 1018.3
20260507104422 16 0.0 0.0 0.00 0.00 0.00 99 1018.2
20260507103920 14 0.0 0.0 0.00 0.00 0.00 99 1018.2
20260507103418 14 0.0 0.0 0.00 0.00 0.00 99 1018.2
20260507102917 13 0.0 0.0 0.00 0.00 0.00 99 1018.2
20260507102414 13 0.0 0.0 0.00 0.00 0.00 99 1018.1
20260507101912 13 0.0 0.0 0.00 0.00 0.00 99 1018.1
20260507101411 13 0.0 0.0 0.00 0.00 0.00 99 1018.0
20260507100909 12 0.0 0.0 0.00 0.00 0.00 99 1018.1
20260507100407 12 0.0 0.0 0.00 0.00 0.00 99 1018.0
20260507095904 12 0.0 0.0 0.00 0.00 0.00 99 1018.0
20260507095402 12 0.0 0.0 0.00 0.00 0.00 99 1017.9
20260507094900 12 0.0 0.0 0.00 0.00 0.00 99 1017.9
20260507094358 12 0.0 0.0 0.00 0.00 0.00 99 1017.9
20260507093856 12 0.0 0.0 0.00 0.00 0.00 99 1017.9
20260507093355 12 0.0 0.0 0.00 0.00 0.00 99 1017.8
20260507092853 12 0.0 0.0 0.00 0.00 0.00 99 1017.8
20260507092351 12 0.0 0.0 0.00 0.00 0.00 99 1017.8
20260507091849 12 0.0 0.0 0.00 0.00 0.00 99 1017.8
20260507091348 12 0.0 0.0 0.00 0.00 0.00 99 1017.8
20260507090846 12 0.0 0.0 0.00 0.00 0.00 99 1017.8
20260507090344 12 0.0 0.0 0.00 0.00 0.00 99 1017.8
20260507085843 12 0.0 0.0 0.00 0.00 0.00 99 1017.7
20260507085341 12 0.0 0.0 0.00 0.00 0.00 99 1017.7
20260507084839 12 0.0 0.0 0.00 0.00 0.00 99 1017.7
20260507084337 12 0.0 0.0 0.00 0.00 0.00 99 1017.6
20260507083835 12 0.0 0.0 0.00 0.00 0.00 99 1017.6
20260507083333 12 0.0 0.0 0.00 0.00 0.00 99 1017.6
20260507082831 12 0.0 0.0 0.00 0.00 0.00 99 1017.6
20260507082330 12 0.0 0.0 0.00 0.00 0.00 99 1017.6
20260507081828 12 0.0 0.0 0.00 0.00 0.00 99 1017.7
20260507081326 12 0.0 0.0 0.00 0.00 0.00 99 1017.7
20260507080825 12 0.0 0.0 0.00 0.00 0.00 99 1017.8
20260507080323 12 0.0 0.0 0.00 0.00 0.00 99 1017.8
20260507075821 12 0.0 0.0 0.00 0.00 0.00 99 1017.8
20260507075319 12 0.0 0.0 0.00 0.00 0.00 99 1017.8
20260507074818 12 0.0 0.0 0.00 0.00 0.00 99 1017.8
20260507074316 12 0.0 0.0 0.00 0.00 0.00 99 1017.9
20260507073814 12 0.0 0.0 0.00 0.00 0.00 99 1018.0
20260507073313 12 0.0 0.0 0.00 0.00 0.00 99 1018.0
20260507072811 12 0.0 0.0 0.00 0.00 0.00 99 1018.1
20260507072310 12 0.0 0.0 0.00 0.00 0.00 99 1018.2
20260507071808 13 0.0 0.0 0.00 0.00 0.00 99 1018.2
20260507071306 13 0.0 0.0 0.00 0.00 0.00 99 1018.3
20260507070805 13 0.0 0.0 0.00 0.00 0.00 99 1018.4
20260507070303 13 0.0 0.0 0.00 0.00 0.00 99 1018.4
20260507065801 13 0.0 0.0 0.00 0.00 0.00 99 1018.5
20260507065300 13 0.0 0.0 0.00 0.00 0.00 99 1018.5
20260507064758 13 0.0 0.0 0.00 0.00 0.00 99 1018.6
20260507064257 13 0.0 0.0 0.00 0.00 0.00 99 1018.6
20260507063755 13 0.0 0.0 0.00 0.00 0.00 99 1018.6
20260507063253 13 0.0 0.0 0.00 0.00 0.00 99 1018.6
20260507062752 13 0.0 0.0 0.00 0.00 0.00 99 1018.7
20260507062250 13 0.0 0.0 0.00 0.00 0.00 99 1018.7
20260507061748 13 0.0 0.0 0.00 0.00 0.00 99 1018.8
20260507061247 13 0.0 0.0 0.00 0.00 0.00 99 1018.8
20260507060745 13 0.0 0.0 0.00 0.00 0.00 99 1018.9
20260507060243 13 0.0 0.0 0.00 0.00 0.00 99 1018.9
20260507055741 13 0.0 0.0 0.00 0.00 0.00 99 1019.0
20260507055240 13 0.0 0.0 0.00 0.00 0.00 99 1019.0
20260507054738 13 0.0 0.0 0.00 0.00 0.00 99 1019.2
20260507054236 13 0.0 0.0 0.00 0.00 0.00 99 1019.3
20260507053734 13 0.0 0.0 0.00 0.00 0.00 99 1019.3
20260507053233 13 0.0 0.0 0.00 0.00 0.00 99 1019.4
20260507052731 13 0.0 0.0 0.00 0.00 0.00 99 1019.5
20260507052229 13 0.0 0.0 0.00 0.00 0.00 99 1019.5
20260507051728 13 0.0 0.0 0.00 0.00 0.00 99 1019.5
20260507051226 13 0.0 0.0 0.00 0.00 0.00 99 1019.6
20260507050724 13 0.0 0.0 0.00 0.00 0.00 99 1019.6
20260507050223 14 0.0 0.0 0.00 0.00 0.00 99 1019.6
20260507045721 14 0.0 0.0 0.00 0.00 0.00 99 1019.7
20260507045219 14 0.0 0.0 0.00 0.00 0.00 99 1019.8
20260507044718 14 0.0 0.0 0.00 0.00 0.00 99 1019.9
20260507044216 14 0.0 0.0 0.00 0.00 0.00 99 1019.8
20260507043714 14 0.0 0.0 0.00 0.00 0.00 99 1019.9
20260507043212 14 0.0 0.0 0.00 0.00 0.00 99 1019.9
20260507042710 14 0.0 0.0 0.00 0.00 0.00 99 1019.9
20260507042209 15 0.0 0.0 0.00 0.00 0.00 99 1020.0
20260507041707 15 0.0 0.0 0.00 0.00 0.00 99 1020.1
20260507041205 15 0.0 0.0 0.00 0.00 0.00 99 1020.1
20260507040703 15 0.0 0.0 0.00 0.00 0.00 99 1020.2
20260507040201 15 0.0 0.0 0.00 0.00 0.00 99 1020.2
20260507035700 15 0.0 0.0 0.00 0.00 0.00 99 1020.3
20260507035158 15 0.0 0.0 0.00 0.00 0.00 99 1020.3
20260507034657 15 0.0 0.0 0.00 0.00 0.00 99 1020.4
20260507034155 15 0.0 0.0 0.00 0.00 0.00 99 1020.4
20260507033653 15 0.0 0.0 0.00 0.00 0.00 99 1020.4
20260507033152 15 0.0 0.0 0.00 0.00 0.00 99 1020.5
20260507032650 15 0.0 0.0 0.00 0.00 0.00 99 1020.5
20260507032148 15 0.0 0.0 0.00 0.00 0.00 99 1020.4
20260507031646 15 0.0 0.0 0.00 0.00 0.00 99 1020.5
20260507031144 15 0.0 0.0 0.00 0.00 0.00 99 1020.6
20260507030643 15 0.0 0.0 0.00 0.00 0.00 99 1020.7
20260507030141 15 0.0 0.0 0.00 0.00 0.00 99 1020.7
20260507025639 15 0.0 0.0 0.00 0.00 0.00 99 1020.7
20260507025138 15 0.0 0.0 0.00 0.00 0.00 99 1020.8
20260507024637 15 0.0 0.0 0.00 0.00 0.00 99 1020.8
20260507024135 15 0.0 0.0 0.00 0.00 0.00 99 1020.8
20260507023633 15 0.0 0.0 0.00 0.00 0.00 99 1020.8
20260507023132 15 0.0 0.0 0.00 0.00 0.00 99 1020.9
20260507022630 15 0.0 0.0 0.00 0.00 0.00 99 1021.0
20260507022128 15 0.0 0.0 0.00 0.00 0.00 99 1021.0
20260507021627 15 0.0 0.0 0.00 0.00 0.00 99 1021.0
20260507021125 15 0.0 0.0 0.00 0.00 0.00 99 1021.1
20260507020624 16 0.0 0.0 0.00 0.00 0.00 99 1021.1
20260507020122 16 0.0 0.0 0.00 0.00 0.00 99 1021.1
20260507015620 16 0.0 0.0 0.00 0.00 0.00 99 1021.2
20260507015118 16 0.0 0.0 0.00 0.00 0.00 99 1021.1
20260507014616 16 0.0 0.0 0.00 0.00 0.00 99 1021.1
20260507014113 16 0.0 0.0 0.00 0.00 0.00 99 1021.1
20260507013612 16 0.0 0.0 0.00 0.00 0.00 99 1021.2
20260507013110 16 0.0 0.0 0.00 0.00 0.00 99 1021.2
20260507012608 16 0.0 0.0 0.00 0.00 0.00 99 1021.2
20260507012106 16 0.0 0.0 0.00 0.00 0.00 99 1021.2
20260507011605 16 0.0 0.0 0.00 0.00 0.00 99 1021.3
20260507011103 16 0.0 0.0 0.00 0.00 0.00 99 1021.4
20260507010601 16 0.0 0.0 0.00 0.00 0.00 99 1021.4
20260507010059 16 0.0 0.0 0.00 0.00 0.00 99 1021.5
20260507005557 16 0.0 0.0 0.00 0.00 0.00 99 1021.6
20260507005055 16 0.0 0.0 0.00 0.00 0.00 99 1021.6
20260507004553 16 0.0 0.0 0.00 0.00 0.00 99 1021.6
20260507004050 17 0.0 0.0 0.00 0.00 0.00 99 1021.6
20260507003548 17 0.0 0.0 0.00 0.00 0.00 99 1021.7
20260507003046 17 0.0 0.0 0.00 0.00 0.00 99 1021.8
20260507002544 17 0.0 0.0 0.00 0.00 0.00 99 1021.8
20260507002042 17 0.0 0.0 0.00 0.00 0.00 99 1021.8
20260507001540 17 0.0 0.0 0.00 0.00 0.00 99 1021.9
20260507001038 17 0.0 0.0 0.00 0.00 0.00 99 1021.8
20260507000536 17 0.0 0.0 0.00 0.00 0.00 99 1021.8
20260507000036 17 0.0 0.0 0.00 0.00 0.00 99 1021.8
20260506235532 17 0.0 0.0 0.00 0.00 0.00 99 1021.8
20260506235030 17 0.0 0.0 0.00 0.00 0.00 99 1021.7
20260506234529 17 0.0 0.0 0.00 0.00 0.00 99 1021.6
20260506234026 17 0.0 0.0 0.00 0.00 0.00 99 1021.5
20260506233524 17 0.0 0.0 0.00 0.00 0.00 99 1021.5
20260506233022 17 0.0 0.0 0.00 0.00 0.00 99 1021.5
20260506232520 17 0.0 0.0 0.00 0.00 0.00 99 1021.4
20260506232019 18 0.0 0.0 0.00 0.00 0.00 99 1021.3
20260506231518 18 0.0 0.0 0.00 0.00 0.00 99 1021.3
20260506231016 18 0.0 0.0 0.00 0.00 0.00 99 1021.3
20260506230514 18 0.0 0.0 0.00 0.00 0.00 99 1021.2
20260506230013 18 0.0 0.0 0.00 0.00 0.00 99 1021.3
20260506225511 18 0.0 0.0 0.00 0.00 0.00 99 1021.3
20260506225010 18 0.0 0.0 0.00 0.00 0.00 99 1021.3
20260506224508 18 0.0 0.0 0.00 0.00 0.00 99 1021.3
20260506224006 18 0.0 0.0 0.00 0.00 0.00 99 1021.2
20260506223504 18 0.0 0.0 0.00 0.00 0.00 99 1021.1
20260506223002 18 0.0 0.0 0.00 0.00 0.00 99 1021.1
20260506222500 19 0.0 0.0 0.00 0.00 0.00 99 1021.1
20260506221958 19 0.0 0.0 0.00 0.00 0.00 99 1021.1
20260506221456 19 0.0 0.0 0.00 0.00 0.00 99 1021.1
20260506220954 19 0.0 0.0 0.00 0.00 0.00 99 1021.1
20260506220452 20 0.0 0.0 0.00 0.00 0.00 99 1021.1
20260506215950 20 0.0 0.0 0.00 0.00 0.00 99 1021.1
20260506215448 20 0.0 0.0 0.00 0.00 0.00 99 1021.0
20260506214947 20 0.0 0.0 0.00 0.00 0.00 99 1021.0
20260506214446 20 0.0 0.0 0.00 0.00 0.00 99 1021.0
20260506213943 20 0.0 0.0 0.00 0.00 0.00 99 1021.0
20260506213442 20 0.0 0.0 0.00 0.00 0.00 99 1021.0
20260506212940 20 0.0 0.0 0.00 0.00 0.00 99 1021.0
20260506212438 20 0.0 0.0 0.00 0.00 0.00 97 1020.9
20260506211936 20 0.0 0.0 0.00 0.00 0.00 95 1020.8
20260506211434 20 0.0 0.0 0.00 0.00 0.00 92 1020.8
20260506210932 21 0.0 0.0 0.00 0.00 0.00 90 1020.6
20260506210431 21 0.0 0.0 0.00 0.00 0.00 87 1020.6
20260506205929 21 0.0 0.0 0.00 0.00 0.00 86 1020.7
20260506205427 21 0.0 0.0 0.00 0.00 0.00 84 1020.7
20260506204925 22 0.0 0.0 0.00 0.00 0.00 82 1020.7
20260506204424 22 0.0 0.0 0.00 0.00 0.00 79 1020.7
20260506203922 22 0.0 0.0 0.00 0.00 0.00 77 1020.7